Flag for Spain Weather for the Past 2 Weeks in Santa Cruz de Tenerife, Canary Islands, Spain

Now
63 °F

Passing clouds.


Feels Like: 63 °F
Forecast: N/A
Wind: 7 mph from Southeast

Location: Tenerife / Los Rodeos

Current Time: Feb 9, 2016 at 4:16:22 PM

Latest Report: Feb 9, 2016 at 3:00 PM


Visibility: N/A

Pressure: 30.45 "Hg

Humidity: 73%

Dew point: 54 °F

Location of Santa Cruz de TenerifeLocation

Historic Weather in Santa Cruz de Tenerife — Graph

°F

Santa Cruz de Tenerife Temperature Yesterday

Maximum temperature yesterday: 66 °F (at 2:30 PM)
Minimum temperature yesterday: 54 °F (at 6:00 AM)
Average temperature yesterday: 58 °F

High & Low Weather Summary for the Past Weeks

 TemperatureHumidityPressure
High68 °F (Feb 1, 2:00 PM)100% (Jan 31, 9:30 PM)30.54 "Hg (Jan 31, 9:30 PM)
Low50 °F (Feb 7, 5:30 AM)28% (Jan 27, 9:30 AM)30.18 "Hg (Feb 5, 3:30 PM)
Average58 °F79%30.37 "Hg
* Reported Jan 25 2:00 PM — Feb 9 2:30 PM, Santa Cruz de Tenerife, Weather by CustomWeather, © 2016

Note: Actual official high and low records may vary slightly from our data, if they occured in-between our weather recording intervals... More about our weather records

Advertising

Santa Cruz de Tenerife Weather History for the Previous 24 Hours

 ConditionsComfort  
Time TempWeatherWind HumidityBarometerVisibility
2:30 PM
Tue, Feb 9
66 °FPassing clouds.6 mph60%30.48 "HgN/A
2:00 PM64 °FPassing clouds.9 mph68%30.48 "HgN/A
1:30 PM64 °FPassing clouds.8 mph68%30.51 "HgN/A
12:30 PM63 °FPassing clouds.2 mph73%30.51 "HgN/A
12:00 PM64 °FPassing clouds.3 mph68%30.54 "HgN/A
11:30 AM63 °FPassing clouds.8 mph73%30.54 "HgN/A
10:30 AM57 °FPassing clouds.9 mph88%30.51 "HgN/A
10:00 AM57 °FPassing clouds.14 mph88%30.51 "HgN/A
9:30 AM55 °FPassing clouds.15 mph94%30.51 "HgN/A
8:30 AM54 °FPassing clouds.8 mph77%30.48 "HgN/A
8:00 AM54 °FPassing clouds.9 mph94%30.45 "HgN/A
7:30 AM54 °FPassing clouds.8 mph94%30.45 "HgN/A
7:00 AM54 °FCool.8 mph94%30.45 "Hg1 mi
6:30 AM55 °FPassing clouds.7 mph88%30.45 "HgN/A
6:00 AM55 °FPassing clouds.6 mph38%30.45 "HgN/A
11:00 PM
Mon, Feb 8
55 °FPassing clouds.5 mph100%30.48 "Hg6 mi
10:00 PM57 °FPassing clouds.6 mph94%30.48 "Hg4 mi
9:30 PM57 °FPassing clouds.6 mph94%30.48 "Hg4 mi
9:00 PM57 °FPassing clouds.3 mph94%30.48 "Hg4 mi
8:30 PM55 °FPassing clouds.1 mph94%30.48 "HgN/A
8:00 PM55 °FPassing clouds.2 mph100%30.45 "Hg5 mi
7:30 PM57 °FPassing clouds.3 mph94%30.45 "Hg5 mi
7:00 PM57 °FPassing clouds.6 mph100%30.45 "HgN/A
6:30 PM57 °FPassing clouds.3 mph100%30.42 "HgN/A
6:00 PM59 °FPassing clouds.7 mph94%30.42 "HgN/A
5:30 PM59 °FPassing clouds.6 mph94%30.42 "HgN/A
5:00 PM61 °FPassing clouds.6 mph88%30.42 "HgN/A
4:30 PM63 °FPassing clouds.5 mph83%30.42 "HgN/A
4:00 PM63 °FPassing clouds.7 mph83%30.42 "HgN/A
Weather by CustomWeather, © 2016

See weather overviewHow to use our weather pages